User: anonymous   Login
Location: Casalecchio di Reno
(44.4760°N, 11.2757°E)
Time: 13:39:33
(UTC+02:00)
Language:

AO-85 - Orbit

View from above orbital plane
View from above orbital plane
View from above satellite
View from above satellite

Ground track
Ground track

The orbit data is extracted from the following two-line orbital elements,

1 40967U 15058D   24169.93331876  .00002585  00000-0  25202-3 0  9991
2 40967  64.7787  13.2246 0189846 303.7017  54.6116 14.82259079  5108
Epoch (UTC): 17 June 2024 22:23:58
Eccentricity: 0.0189846
inclination: 64.7787°
perigee height: 489 km
apogee height: 755 km
right ascension of ascending node: 13.2246°
argument of perigee: 303.7017°
revolutions per day: 14.82259079
mean anomaly at epoch: 54.6116°
orbit number at epoch: 510

The dashed part of the orbit path shows where the satellite is in the earth's shadow,  

DLR